Orbital Elements at Epoch 2459000.5 (2020-May-31.0) TDB
Reference: JPL 15 (heliocentric ecliptic J2000)
Element | Value | Uncertainty (1-sigma) | Units |
e | .06034077845931312 | 7.8007e-08 | |
a | 2.729198530049637 | 3.7608e-08 | au |
q | 2.564516566176429 | 2.1932e-07 | au |
i | 5.679006706458991 | 7.0029e-06 | deg |
node | 44.98555259363986 | 7.0883e-05 | deg |
peri | 325.7975353881889 | 8.8456e-05 | deg |
M | 96.51083507560519 | 5.4722e-05 | deg |
tp | 2458559.006115085267 (2019-Mar-16.50611509) | 0.00024737 | TDB |
period | 1646.838911349117 4.51 | 3.404e-05 9.32e-08 | d yr |
n | .2186006157123663 | 4.5184e-09 | deg/d |
Q | 2.893880493922845 | 3.9877e-08 | au |
|
| | Orbit Determination Parameters
Additional Information
|